This demonstration page uses our WeatherBlox Daily Observations layout. Learn more.

38.89511, -77.03637

Hourly Observations for June 20, 2018

Temp ( °F °C ) Dew Point ( °F °C ) Humidity (%) Winds ( mph kmh ) Pressure ( in mb ) Visibility ( mi km ) Precip ( " mm )
12:52 am 00:52 Partly Cloudy 77 25 67 19.4 71 71 NNW 7 11 29.85 1011 10 16.09344 0 0
1:52 am 01:52 Partly Cloudy 76 24.4 65 18.3 69 69 N 6 9 29.85 1011 10 16.09344 0 0
2:52 am 02:52 Cloudy 76 24.4 60 15.6 58 58 N 6 9 29.85 1011 10 16.09344 0 0
3:52 am 03:52 Cloudy 76 24.4 60 15.6 58 58 N 5 7 29.85 1011 10 16.09344 0 0
4:52 am 04:52 Partly Cloudy 74 23.3 58 14.4 57 57 NNE 8 13 29.85 1011 10 16.09344 0 0
5:52 am 05:52 Mostly Cloudy 75 23.9 57 13.9 54 54 NNE 7 11 29.85 1011 10 16.09344 0 0
6:52 am 06:52 Mostly Cloudy 75 23.9 57 13.9 54 54 NE 7 11 29.88 1012 10 16.09344 0 0
7:52 am 07:52 Mostly Cloudy 76 24.4 58 14.4 54 54 NNE 6 9 29.88 1012 10 16.09344 0 0
8:52 am 08:52 Mostly Cloudy 77 25 60 15.6 56 56 ENE 6 9 29.88 1012 10 16.09344 0 0
9:52 am 09:52 Mostly Cloudy 79 26.1 60 15.6 52 52 Calm 29.88 1012 10 16.09344 0 0
10:52 am 10:52 Mostly Cloudy 81 27.2 62 16.7 53 53 SW 6 9 29.85 1011 10 16.09344 0 0
11:52 am 11:52 Cloudy 81 27.2 64 17.8 57 57 S 5 7 29.85 1011 10 16.09344 0 0
12:52 pm 12:52 Cloudy 83 28.3 64 17.8 53 53 S 7 11 29.85 1011 10 16.09344 0 0
1:52 pm 13:52 Mostly Cloudy 84 28.9 65 18.3 53 53 S 7 11 29.83 1010 10 16.09344 0 0
2:52 pm 14:52 Mostly Cloudy 84 28.9 60 15.6 44 44 SSE 5 7 29.83 1010 10 16.09344 0 0
3:52 pm 15:52 Cloudy 83 28.3 62 16.7 49 49 S 5 7 29.8 1009 10 16.09344 0 0
4:52 pm 16:52 Cloudy with Light Rain 82 27.8 67 19.4 60 60 S 5 7 29.77 1008 10 16.09344 0.001 0.001
5:50 pm 17:50 Cloudy with Nearby Thunderstorms 81 27 68 20 66 66 SSW 5 7 29.77 1008 10 16.09344 0.001 0.001
5:52 pm 17:52 Cloudy with Nearby Thunderstorms 81 27.2 68 20 65 65 SSW 5 7 29.77 1008 10 16.09344 0.001 0.001
6:00 pm 18:00 Cloudy with Thunderstorms 81 27.2 68 20 65 65 S 3 6 29.77 1008 10 16.09344 0.001 0.001
6:43 pm 18:43 Cloudy with Light Rain 81 27.2 70 21.1 69 69 SSE 3 6 29.77 1008 10 16.09344 0.01 0.254
6:52 pm 18:52 Cloudy 81 27.2 71 21.7 72 72 Calm 29.77 1008 10 16.09344 0.01 0.254
7:52 pm 19:52 Cloudy 81 27.2 70 21.1 69 69 W 12 19 29.8 1009 10 16.09344 0 0
8:52 pm 20:52 Cloudy with Rain 74 23.3 68 20 82 82 WNW 6 9 29.77 1008 7 11.265408 0.04 1.016
9:52 pm 21:52 Cloudy with Light Rain 74 23.3 69 20.6 85 85 SSW 6 9 29.8 1009 10 16.09344 0.07 1.778
10:52 pm 22:52 Cloudy 74 23.3 69 20.6 85 85 WSW 6 9 29.8 1009 10 16.09344 0.01 0.254
11:52 pm 23:52 Cloudy 74 23.3 69 20.6 85 85 Calm 29.77 1008 10 16.09344 0.001 0.001

Powered by AerisWeather